TimeEDT,TemperatureF,Dew PointF,Humidity,Sea Level PressureIn,VisibilityMPH,Wind Direction,Wind SpeedMPH,Gust SpeedMPH,PrecipitationIn,Events,Conditions,WindDirDegrees,DateUTC
12:53 AM,54.0,50.0,86,30.17,10.0,North,4.6,-,N/A,,Clear,350,2013-07-26 04:53:00
1:53 AM,54.0,50.0,86,30.16,10.0,North,6.9,-,N/A,,Clear,360,2013-07-26 05:53:00
2:53 AM,54.0,50.0,86,30.16,10.0,North,5.8,-,N/A,,Clear,10,2013-07-26 06:53:00
3:53 AM,52.0,50.0,93,30.15,10.0,NNW,4.6,-,N/A,,Clear,340,2013-07-26 07:53:00
4:53 AM,53.1,50.0,89,30.16,10.0,NNW,5.8,-,N/A,,Clear,340,2013-07-26 08:53:00
5:53 AM,55.0,51.1,86,30.16,10.0,Calm,Calm,-,N/A,,Clear,0,2013-07-26 09:53:00
6:53 AM,55.9,52.0,87,30.16,10.0,North,3.5,-,N/A,,Clear,350,2013-07-26 10:53:00
7:53 AM,57.9,54.0,87,30.16,10.0,Variable,4.6,-,N/A,,Clear,0,2013-07-26 11:53:00
8:53 AM,59.0,54.0,83,30.16,10.0,NE,6.9,-,N/A,,Scattered Clouds,50,2013-07-26 12:53:00
9:53 AM,60.1,54.0,80,30.17,10.0,ENE,6.9,-,N/A,,Overcast,70,2013-07-26 13:53:00
10:53 AM,61.0,53.1,75,30.17,10.0,ENE,6.9,-,N/A,,Overcast,70,2013-07-26 14:53:00
11:53 AM,62.1,55.0,78,30.16,10.0,ENE,5.8,-,N/A,,Mostly Cloudy,60,2013-07-26 15:53:00
12:53 PM,61.0,55.0,81,30.15,10.0,NE,8.1,-,0.00,Rain,Light Rain,40,2013-07-26 16:53:00
1:36 PM,60.8,57.2,88,30.15,10.0,NNE,6.9,-,0.01,Rain,Light Rain,30,2013-07-26 17:36:00
1:53 PM,60.1,57.9,93,30.14,10.0,NNE,9.2,-,0.01,Rain,Light Rain,30,2013-07-26 17:53:00
2:06 PM,60.8,57.2,88,30.14,10.0,NNE,5.8,-,0.01,Rain,Light Rain,30,2013-07-26 18:06:00
2:53 PM,61.0,57.9,90,30.12,10.0,North,4.6,-,0.02,Rain,Light Rain,10,2013-07-26 18:53:00
3:09 PM,60.8,59.0,94,30.11,10.0,NNE,8.1,-,0.00,Rain,Light Rain,30,2013-07-26 19:09:00
3:35 PM,60.8,57.2,88,30.10,10.0,NNE,9.2,-,0.00,Rain,Light Rain,20,2013-07-26 19:35:00
3:53 PM,61.0,57.9,90,30.10,10.0,NNE,10.4,-,0.00,Rain,Light Rain,30,2013-07-26 19:53:00
4:51 PM,59.0,57.2,94,30.07,10.0,NNE,12.7,20.7,0.01,Rain,Light Rain,30,2013-07-26 20:51:00
4:53 PM,59.0,57.0,93,30.07,10.0,NNE,12.7,20.7,0.01,Rain,Light Rain,30,2013-07-26 20:53:00
5:03 PM,59.0,57.2,94,30.06,10.0,NNE,13.8,23.0,0.00,,Overcast,30,2013-07-26 21:03:00
5:49 PM,59.0,55.4,88,30.07,8.0,NNE,6.9,-,0.01,Rain,Light Rain,20,2013-07-26 21:49:00
5:53 PM,59.0,57.0,93,30.07,7.0,NNE,8.1,-,0.01,Rain,Light Rain,20,2013-07-26 21:53:00
6:25 PM,57.2,55.4,94,30.07,7.0,North,11.5,-,0.02,Rain,Light Rain,10,2013-07-26 22:25:00
6:38 PM,57.2,57.2,100,30.07,5.0,North,8.1,-,0.04,Rain,Rain,10,2013-07-26 22:38:00
6:53 PM,57.9,57.0,97,30.07,4.0,North,8.1,-,0.07,Rain,Rain,10,2013-07-26 22:53:00
7:29 PM,57.2,57.2,100,30.06,6.0,North,5.8,-,0.03,Rain,Light Rain,360,2013-07-26 23:29:00
7:46 PM,57.2,57.2,100,30.05,6.0,NNE,9.2,-,0.05,Rain,Light Rain,20,2013-07-26 23:46:00
7:53 PM,57.9,57.0,97,30.05,9.0,NNE,9.2,-,0.05,Rain,Light Rain,20,2013-07-26 23:53:00
8:53 PM,57.9,57.0,97,30.04,10.0,NNE,10.4,-,0.01,Rain,Light Rain,30,2013-07-27 00:53:00
9:28 PM,57.2,57.2,100,30.03,10.0,NNE,12.7,20.7,0.00,Rain,Light Rain,20,2013-07-27 01:28:00
9:53 PM,57.9,57.0,97,30.01,10.0,NNE,12.7,-,0.01,Rain,Light Rain,20,2013-07-27 01:53:00
10:53 PM,59.0,57.0,93,30.00,7.0,NNE,6.9,-,0.02,Rain,Light Rain,20,2013-07-27 02:53:00
11:22 PM,59.0,57.2,94,30.00,10.0,North,9.2,17.3,0.00,,Overcast,10,2013-07-27 03:22:00
11:43 PM,59.0,57.2,94,29.99,10.0,North,9.2,-,0.00,,Overcast,10,2013-07-27 03:43:00
11:53 PM,59.0,57.0,93,29.98,10.0,North,6.9,16.1,0.00,,Overcast,350,2013-07-27 03:53:00